• In United Kingdom
  • List of Countries
  • For 7 days
  • Water Temperature
  • Satellite Maps
  • Weather Map
  • Weather Widgets
  • user-avatar
    Login

    Hourly Weather Thessaloniki

    Today, 20 July, Friday

    Time Temperature Precipitation Wind Pressure Humidity
    00:00 +23°C° 0 mm 4 mps 754 mmHg 63%
    01:00 +23°C° 0 mm 4 mps 754 mmHg 64%
    02:00 +22°C° 0 mm 4 mps 754 mmHg 65%
    03:00 +22°C° 0 mm 3 mps 754 mmHg 67%
    04:00 +22°C° 0 mm 3 mps 754 mmHg 68%
    05:00 +22°C° 0 mm 3 mps 754 mmHg 69%
    06:00 +24°C° 0 mm 3 mps 754 mmHg 65%
    07:00 +26°C° 0 mm 3 mps 754 mmHg 60%
    08:00 +27°C° 0 mm 3 mps 754 mmHg 56%
    09:00 +29°C° 0 mm 4 mps 754 mmHg 51%
    10:00 +32°C° 0 mm 4 mps 754 mmHg 47%
    11:00 +33°C° 0 mm 4 mps 754 mmHg 42%
    12:00 +34°C° 0 mm 3 mps 754 mmHg 40%
    13:00 +35°C° 0 mm 3 mps 754 mmHg 38%
    14:00 +36°C° 0 mm 3 mps 754 mmHg 35%
    15:00 +36°C° 0 mm 3 mps 753 mmHg 36%
    16:00 +36°C° 0 mm 3 mps 753 mmHg 36%
    17:00 +36°C° 0 mm 3 mps 753 mmHg 36%
    18:00 +34°C° 0 mm 3 mps 753 mmHg 40%
    19:00 +33°C° 0 mm 3 mps 754 mmHg 44%
    20:00 +30°C° 0 mm 2 mps 754 mmHg 47%
    21:00 +29°C° 0 mm 2 mps 754 mmHg 50%
    22:00 +28°C° 0 mm 2 mps 755 mmHg 53%
    23:00 +27°C° 0 mm 2 mps 755 mmHg 56%

    Tomorrow, 21 July, Saturday

    Time Temperature Precipitation Wind Pressure Humidity
    00:00 +26°C° 0 mm 3 mps 755 mmHg 57%
    01:00 +26°C° 0 mm 3 mps 755 mmHg 59%
    02:00 +25°C° 0 mm 3 mps 755 mmHg 60%
    03:00 +24°C° 0 mm 3 mps 755 mmHg 60%
    04:00 +24°C° 0 mm 3 mps 755 mmHg 61%
    05:00 +22°C° 0 mm 3 mps 755 mmHg 61%
    06:00 +25°C° 0 mm 3 mps 755 mmHg 55%
    07:00 +26°C° 0 mm 3 mps 755 mmHg 48%
    08:00 +28°C° 0 mm 3 mps 755 mmHg 42%
    09:00 +30°C° 0 mm 3 mps 755 mmHg 37%
    10:00 +33°C° 0 mm 3 mps 755 mmHg 32%
    11:00 +35°C° 0 mm 3 mps 755 mmHg 28%
    12:00 +36°C° 0 mm 3 mps 755 mmHg 25%
    13:00 +37°C° 0 mm 3 mps 755 mmHg 23%
    14:00 +38°C° 0 mm 3 mps 754 mmHg 21%
    15:00 +38°C° 0 mm 2 mps 754 mmHg 21%
    16:00 +39°C° 0 mm 2 mps 754 mmHg 21%
    17:00 +39°C° 0 mm 2 mps 754 mmHg 22%
    18:00 +36°C° 0 mm 2 mps 754 mmHg 26%
    19:00 +34°C° 0 mm 2 mps 754 mmHg 31%
    20:00 +31°C° 0 mm 2 mps 754 mmHg 35%
    21:00 +30°C° 0 mm 2 mps 755 mmHg 38%
    22:00 +29°C° 0 mm 2 mps 755 mmHg 41%
    23:00 +28°C° 0 mm 1 mps 755 mmHg 44%

    Day after tomorrow, 22 July, Sunday

    Time Temperature Precipitation Wind Pressure Humidity
    00:00 +28°C° 0 mm 1 mps 755 mmHg 45%
    01:00 +27°C° 0 mm 1 mps 755 mmHg 46%
    02:00 +27°C° 0 mm 1 mps 755 mmHg 48%
    03:00 +26°C° 0 mm 2 mps 755 mmHg 48%
    04:00 +26°C° 0 mm 2 mps 755 mmHg 49%
    05:00 +25°C° 0 mm 2 mps 755 mmHg 49%
    06:00 +27°C° 0 mm 2 mps 755 mmHg 45%
    07:00 +29°C° 0 mm 2 mps 755 mmHg 41%
    08:00 +31°C° 0 mm 2 mps 755 mmHg 37%
    09:00 +34°C° 0 mm 2 mps 755 mmHg 34%
    10:00 +34°C° 0 mm 1 mps 754 mmHg 30%
    11:00 +36°C° 0 mm 1 mps 754 mmHg 27%
    12:00 +38°C° 0 mm 2 mps 754 mmHg 25%
    13:00 +39°C° 0 mm 3 mps 753 mmHg 24%
    14:00 +40°C° 0 mm 3 mps 753 mmHg 22%
    15:00 +41°C° 0 mm 4 mps 752 mmHg 23%
    16:00 +41°C° 0 mm 4 mps 752 mmHg 24%
    17:00 +40°C° 0 mm 5 mps 752 mmHg 25%
    18:00 +37°C° 0.1 mm 4 mps 752 mmHg 33%
    19:00 +34°C° 0.1 mm 4 mps 752 mmHg 40%
    20:00 +31°C° 0.1 mm 3 mps 752 mmHg 47%
    21:00 +30°C° 0.1 mm 3 mps 752 mmHg 49%
    22:00 +30°C° 0.1 mm 2 mps 752 mmHg 50%
    23:00 +29°C° 0.1 mm 2 mps 752 mmHg 51%

    23 July, Monday

    Time Temperature Precipitation Wind Pressure Humidity
    00:00 +28°C° 0 mm 2 mps 752 mmHg 53%
    01:00 +27°C° 0 mm 2 mps 752 mmHg 55%
    02:00 +27°C° 0 mm 1 mps 751 mmHg 57%
    03:00 +26°C° 0 mm 1 mps 751 mmHg 57%
    04:00 +26°C° 0 mm 1 mps 751 mmHg 57%
    05:00 +26°C° 0 mm 1 mps 751 mmHg 57%
    06:00 +27°C° 0 mm 1 mps 751 mmHg 53%
    07:00 +29°C° 0 mm 1 mps 751 mmHg 49%
    08:00 +31°C° 0 mm 1 mps 751 mmHg 44%
    09:00 +33°C° 0 mm 1 mps 750 mmHg 39%
    10:00 +35°C° 0 mm 2 mps 750 mmHg 34%
    11:00 +37°C° 0 mm 2 mps 750 mmHg 28%
    12:00 +38°C° 0 mm 3 mps 749 mmHg 26%
    13:00 +40°C° 0 mm 4 mps 749 mmHg 23%
    14:00 +41°C° 0 mm 5 mps 748 mmHg 21%
    15:00 +40°C° 0 mm 5 mps 748 mmHg 22%
    16:00 +39°C° 0 mm 5 mps 748 mmHg 24%
    17:00 +37°C° 0 mm 5 mps 748 mmHg 26%
    18:00 +35°C° 0 mm 5 mps 748 mmHg 30%
    19:00 +34°C° 0 mm 4 mps 748 mmHg 34%
    20:00 +32°C° 0 mm 4 mps 748 mmHg 39%
    21:00 +29°C° 0.2 mm 3 mps 749 mmHg 42%
    22:00 +28°C° 0.2 mm 3 mps 749 mmHg 46%
    23:00 +27°C° 0.2 mm 3 mps 749 mmHg 49%

    24 July, Tuesday

    Time Temperature Precipitation Wind Pressure Humidity
    00:00 +26°C° 0.2 mm 3 mps 749 mmHg 52%
    01:00 +25°C° 0.2 mm 3 mps 749 mmHg 54%
    02:00 +25°C° 0.2 mm 3 mps 749 mmHg 57%
    03:00 +24°C° 0 mm 3 mps 749 mmHg 59%
    04:00 +24°C° 0 mm 3 mps 749 mmHg 62%
    05:00 +22°C° 0 mm 3 mps 749 mmHg 64%
    06:00 +24°C° 0 mm 3 mps 749 mmHg 60%
    07:00 +26°C° 0 mm 3 mps 749 mmHg 56%
    08:00 +27°C° 0 mm 3 mps 750 mmHg 51%
    09:00 +29°C° 0 mm 3 mps 750 mmHg 47%
    10:00 +30°C° 0 mm 3 mps 750 mmHg 42%
    11:00 +33°C° 0 mm 3 mps 750 mmHg 38%
    12:00 +34°C° 0 mm 2 mps 750 mmHg 36%
    13:00 +35°C° 0 mm 2 mps 749 mmHg 34%
    14:00 +36°C° 0 mm 2 mps 749 mmHg 32%
    15:00 +35°C° 0.1 mm 2 mps 749 mmHg 33%
    16:00 +35°C° 0.1 mm 2 mps 749 mmHg 35%
    17:00 +34°C° 0.1 mm 3 mps 749 mmHg 36%
    18:00 +32°C° 0.8 mm 2 mps 750 mmHg 41%
    19:00 +30°C° 0.8 mm 2 mps 750 mmHg 46%
    20:00 +28°C° 0.8 mm 1 mps 750 mmHg 51%
    21:00 +28°C° 0.8 mm 1 mps 751 mmHg 55%
    22:00 +27°C° 0.8 mm 2 mps 751 mmHg 58%
    23:00 +26°C° 0.8 mm 2 mps 752 mmHg 62%

    25 July, Wednesday

    Time Temperature Precipitation Wind Pressure Humidity
    00:00 +25°C° 0.5 mm 2 mps 752 mmHg 64%
    01:00 +25°C° 0.5 mm 2 mps 752 mmHg 67%
    02:00 +24°C° 0.5 mm 2 mps 752 mmHg 69%
    03:00 +24°C° 0.4 mm 2 mps 752 mmHg 70%
    04:00 +24°C° 0.4 mm 2 mps 752 mmHg 71%
    05:00 +23°C° 0.4 mm 2 mps 752 mmHg 72%
    06:00 +25°C° 0.2 mm 2 mps 753 mmHg 67%
    07:00 +26°C° 0.2 mm 3 mps 753 mmHg 62%
    08:00 +28°C° 0.2 mm 3 mps 753 mmHg 57%
    09:00 +29°C° 0.1 mm 2 mps 753 mmHg 51%
    10:00 +31°C° 0.1 mm 2 mps 753 mmHg 46%
    11:00 +34°C° 0.1 mm 2 mps 753 mmHg 40%
    12:00 +35°C° 0 mm 2 mps 753 mmHg 38%
    13:00 +35°C° 0 mm 2 mps 753 mmHg 36%
    14:00 +36°C° 0 mm 2 mps 752 mmHg 34%
    15:00 +36°C° 0 mm 3 mps 752 mmHg 36%
    16:00 +35°C° 0 mm 3 mps 752 mmHg 37%
    17:00 +34°C° 0 mm 4 mps 752 mmHg 39%
    18:00 +33°C° 0.1 mm 3 mps 753 mmHg 45%
    19:00 +30°C° 0.1 mm 2 mps 753 mmHg 50%
    20:00 +29°C° 0.1 mm 2 mps 753 mmHg 55%
    21:00 +28°C° 0.1 mm 1 mps 753 mmHg 58%
    22:00 +27°C° 0.1 mm 1 mps 754 mmHg 60%
    23:00 +27°C° 0.1 mm 1 mps 754 mmHg 63%
    Show more